Location: Hothfield
(51.1500°N, 0.8167°E)
Time: 02:32:28
(UTC+00:00)

Daily predictions for brighter satellites

Satellite Brightness Start Highest point End
(mag) Time Altitude Azimuth Time Altitude Azimuth Time Altitude Azimuth
Meteor 1-24 Rocket 3.9 00:02:18 21° SSW 00:06:15 72° WNW 00:11:54 10° N
USA 234 4.0 00:00:10 10° ENE 00:06:31 55° N 00:12:52 10° W
Cosmos 2227 Rocket 2.7 00:05:20 24° S 00:08:30 47° ESE 00:13:55 10° NE
Cosmos 304 Rocket 3.8 00:06:23 22° SSW 00:09:28 75° WNW 00:14:16 10° NNE
Cosmos 1892 2.5 00:09:05 34° S 00:10:27 72° E 00:13:58 10° NNE
Cosmos 332 Rocket 4.1 00:09:47 26° S 00:12:23 57° ESE 00:17:12 10° NNE
Cosmos 2181 Rocket 4.1 00:06:50 10° NNW 00:12:58 65° W 00:16:56 23° S
Cosmos 1980 4.1 00:08:06 10° NW 00:13:32 49° WSW 00:16:41 24° S
CENTAUR R/B 3.2 00:12:18 22° S 00:15:23 38° ESE 00:21:42 10° NE
GEOS 3 Rocket 3.8 00:14:04 10° NE 00:19:08 52° SE 00:22:03 24° SSW
H-2A R/B 2.0 00:17:27 10° NNE 00:21:46 82° WNW 00:24:02 27° SSW
Cosmos 1538 Rocket 4.1 00:17:49 10° NNW 00:23:02 75° ENE 00:27:12 16° SSE
Cosmos 1503 Rocket 4.2 00:19:44 19° SW 00:23:33 69° WNW 00:28:51 10° NNE
Cosmos 1777 Rocket 4.1 00:21:13 21° SSW 00:24:46 78° WNW 00:30:06 10° NNE
SL-4 R/B 2.7 00:21:33 10° W 00:25:16 33° SSW 00:26:25 28° S
Cosmos 2151 Rocket 4.1 00:22:46 10° NNW 00:26:59 46° W 00:29:10 25° SSW
Cosmos 1174 4.4 00:23:42 10° NW 00:28:33 48° WSW 00:30:27 28° S
Cosmos 2297 Rocket 2.3 00:24:22 18° SW 00:28:36 76° WNW 00:34:17 10° NNE
Cosmos 2074 Rocket 4.0 00:24:31 22° S 00:28:40 90° E 00:34:56 10° N
NOSS 8 (A) 4.3 00:25:49 10° NW 00:28:44 59° SW 00:30:08 30° SSE
Cosmos 2219 3.9 00:27:36 21° SSE 00:30:50 40° ESE 00:36:03 10° NE
Cosmos 2084 Rocket 3.4 00:29:51 26° SSW 00:32:07 67° SE 00:36:14 10° NE
ALOS 2 4.5 00:30:59 14° SW 00:33:03 19° W 00:36:10 10° NW
Okean 2 Rocket 3.7 00:29:31 10° NNW 00:33:47 44° W 00:36:03 24° SSW
Cosmos 1455 Rocket 3.5 00:30:06 10° N 00:34:30 59° ENE 00:37:36 19° SSE
ATLAS CENTAUR R/B 4.2 00:37:18 10° NW 00:39:04 13° NNW 00:40:52 10° NNE
Aureole 1 Rocket 3.9 00:38:34 21° SSE 00:40:17 32° ESE 00:44:10 10° NE
Cosmos 1825 2.5 00:42:47 27° SW 00:44:19 48° WNW 00:47:40 10° N
Cosmos 1674 Rocket 4.1 00:41:51 22° SW 00:44:25 49° WNW 00:48:39 10° N
Cosmos 1378 Rocket 4.4 00:43:13 20° SW 00:45:52 41° WNW 00:50:03 10° N
Cosmos 923 Rocket 4.5 00:45:50 10° NNW 00:51:05 60° ENE 00:56:15 10° SE
Cosmos 1025 Rocket 3.0 00:50:34 25° S 00:53:04 89° W 00:57:25 10° N
Cosmos 2221 Rocket 4.3 00:51:16 20° SW 00:54:01 44° WNW 00:58:17 10° N
BREEZE-M DEB (TANK) 2.7 00:51:16 10° W 00:57:18 41° SSW 00:58:59 20° SSE
Resurs 1-4 Rocket 3.9 00:54:15 10° NE 00:58:23 23° E 01:02:30 10° SE
NOSS 3-2 (A) 3.7 00:56:57 21° S 01:00:10 46° ESE 01:06:02 10° NE
Cosmos 1606 3.6 00:57:44 10° N 01:01:10 41° ENE 01:04:04 13° SE
Nadezhda 3 Rocket 4.2 00:55:39 10° NNW 01:01:50 60° W 01:06:12 20° SSW
Cosmos 2263 Rocket 2.7 00:58:49 20° S 01:02:28 49° ESE 01:07:49 10° NE
CZ-4C R/B 2.8 00:58:22 10° WSW 01:03:05 53° NW 01:09:06 10° NE
Cosmos 1898 Rocket 4.0 01:01:19 19° S 01:04:44 48° ESE 01:09:43 10° NNE
COSMOS 2455 3.9 00:59:43 10° WSW 01:05:26 43° NW 01:11:12 10° NNE
Orbus 7S? 2.8 01:03:20 10° WNW 01:06:00 73° NNE 01:09:29 10° ESE
MOZ.5/SAFIR/RUBIN 5/SL-8 3.9 01:05:48 13° SSE 01:09:53 72° ENE 01:14:31 10° N
BlueWalker 3 2.2 01:09:23 10° W 01:13:07 67° N 01:16:52 10° ENE
Helios 1A Rocket 2.7 01:12:04 22° S 01:14:23 68° WSW 01:18:11 10° NNW
Cosmos 1461 4.1 01:14:31 18° SSE 01:16:32 27° ESE 01:19:50 10° ENE
Cosmos 2366 rocket 4.4 01:11:40 14° SSE 01:16:59 58° E 01:23:06 10° NNE
BREEZE-M DEB (TANK) 3.0 01:22:07 10° W 01:25:56 12° SE 01:26:14 10° SE
Cosmos 1680 Rocket 3.5 01:28:12 10° NNW 01:33:27 87° WSW 01:38:39 10° SSE
SL-19 R/B 3.9 01:30:28 10° N 01:33:31 55° WNW 01:35:06 23° SW
Cosmos 1818 3.5 01:28:58 10° NW 01:34:27 70° SW 01:39:52 10° SSE
In-Cosmos 22 Rocket 4.3 01:29:58 18° SSW 01:34:27 81° WNW 01:40:20 10° N
Cosmos 2112 Rocket 4.0 01:30:21 10° NNW 01:35:35 85° ENE 01:40:47 10° SSE
SL-16 R/B 2.8 01:31:53 10° NW 01:37:06 38° WSW 01:41:09 16° SSW
SL-16 R/B 3.7 01:33:53 10° SE 01:39:46 45° ENE 01:45:39 10° N
Cosmos 1603 4.2 01:36:19 10° NNW 01:42:04 63° NE 01:47:45 10° SE
Cosmos 2237 Rocket 4.2 01:41:53 10° WNW 01:43:27 11° W 01:45:01 10° WSW
Cosmos 1869 3.2 01:40:17 10° NNW 01:43:58 62° W 01:46:40 17° S
Cosmos 1544 Rocket 3.6 01:41:40 10° NNW 01:46:08 72° W 01:49:57 14° S
Cosmos 292 Rocket 4.0 01:43:03 16° SW 01:46:46 64° WNW 01:51:34 10° NNE
SL-8 Rocket 4.0 01:43:18 15° SSW 01:48:29 79° W 01:54:44 10° N
USA 234 3.9 01:42:41 10° E 01:49:06 62° NNE 01:55:33 10° WNW
Cosmos 2082 3.7 01:45:35 16° SSW 01:50:11 85° WNW 01:55:52 10° NNE
IDEFIX/ARIANE 42P 2.7 01:45:17 10° NNE 01:50:33 73° ESE 01:55:13 13° S
Cosmos 2228 3.0 01:47:20 10° NNW 01:51:42 83° W 01:55:50 11° S
Cosmos 1943 3.1 01:46:41 10° NNW 01:52:19 79° WSW 01:57:55 10° SSE
Cosmos 2227 Rocket 3.2 01:47:24 10° WSW 01:52:41 39° NW 01:58:00 10° NNE
CZ-2C R/B 3.8 01:50:12 10° NNE 01:55:34 52° E 02:00:37 10° S
H-2A R/B 4.4 01:54:47 10° NNW 01:56:45 13° NW 01:58:41 10° W
Cosmos 1437 Rocket 3.8 01:53:36 10° SSE 01:57:11 38° E 02:00:43 10° NNE
CZ-2C R/B 2.6 01:52:01 10° SSE 01:57:18 84° WSW 02:02:45 10° NNW
CZ-2D R/B 2.5 01:53:18 10° NNE 01:58:37 62° ESE 02:03:47 10° S
Cosmos 1975 Rocket 4.0 01:58:43 14° SW 02:02:01 37° WNW 02:06:08 10° N
Cosmos 1727 Rocket 4.1 01:57:12 10° N 02:03:36 87° E 02:09:57 10° S
COBE Rocket 4.2 01:59:59 10° N 02:05:05 64° WNW 02:09:38 13° SSW
CENTAUR R/B 3.0 01:59:42 10° WSW 02:05:40 62° NW 02:13:07 10° NE
H-2A R/B 3.3 02:04:29 10° NNE 02:08:29 87° WNW 02:12:02 13° SSW
USA 238 DEB 4.3 02:06:34 10° S 02:12:14 42° ESE 02:18:30 10° NE
USA 238 4.4 02:06:36 10° S 02:12:17 42° ESE 02:18:33 10° NE
Cosmos 2297 Rocket 4.2 02:09:22 10° W 02:13:36 21° NW 02:17:52 10° NNE
Cosmos 2219 4.0 02:09:36 10° WSW 02:14:58 44° NW 02:20:21 10° NNE
NPP 3.7 02:09:41 10° NNE 02:15:06 77° WNW 02:20:16 11° SSW
ASTEX 1 3.7 02:16:43 10° SSE 02:21:33 68° E 02:26:24 10° N
Cosmos 1606 Rocket 3.8 02:17:12 10° N 02:21:41 77° E 02:26:06 10° SSE
Aureole 1 Rocket 4.4 02:20:11 10° WSW 02:23:30 28° NW 02:27:33 10° N
Cosmos 1867 4.3 02:18:43 10° S 02:23:52 44° ESE 02:29:03 10° NE
Cosmos 921 Rocket 2.9 02:19:39 10° NNW 02:23:56 89° NE 02:28:07 10° SSE
Cosmos 2227 4.4 02:18:50 11° SSW 02:24:22 75° ESE 02:30:09 10° NNE
ADEOS II 2.3 02:20:32 10° NNE 02:25:48 71° ESE 02:31:02 10° S
Cosmos 494 Rocket 4.0 02:22:06 10° NNW 02:27:20 78° WSW 02:32:35 10° SSE
Cosmos 1536 Rocket 3.7 02:27:08 10° SSW 02:31:28 63° WNW 02:35:53 10° N
Cosmos 1900 4.5 02:28:54 11° SW 02:33:55 83° SE 02:39:02 10° NE
Cosmos 1844 4.5 02:28:43 10° S 02:34:14 49° ESE 02:39:49 10° NE
Cosmos 1606 4.4 02:33:12 10° NW 02:35:31 17° W 02:37:52 10° SW
Cosmos 1238 Rocket 4.5 02:33:32 10° N 02:36:45 29° ENE 02:39:36 10° SE
Cosmos 1726 Rocket 3.7 02:32:49 10° N 02:37:17 83° ENE 02:41:43 10° SSE
Resurs 1-4 Rocket 2.3 02:33:23 10° N 02:38:37 64° WNW 02:43:49 10° SSW
Cosmos 724 4.3 02:36:36 10° NW 02:42:27 89° NE 02:48:18 10° SE
Cosmos 1937 Rocket 4.3 02:38:34 10° SW 02:43:34 42° WNW 02:48:33 10° NNE
Iridium 4 Rocket 4.1 02:41:46 10° N 02:46:01 49° E 02:50:36 10° SSE
Cosmos 2263 Rocket 3.2 02:41:24 10° WSW 02:46:33 37° NW 02:51:44 10° NNE
NOSS 3-2 (A) 4.1 02:45:35 10° WSW 02:50:56 50° NNW 02:57:25 10° NE
BlueWalker 3 2.2 02:47:46 10° WNW 02:51:31 72° NNE 02:55:16 10° E
Cosmos 1812 2.7 02:48:48 10° N 02:52:24 77° E 02:55:58 10° SSE
Cosmos 1821 Rocket 4.3 02:46:42 10° SSW 02:52:39 55° WNW 02:58:42 10° N
CZ-4C R/B 4.3 02:48:09 10° WNW 02:52:52 28° N 02:58:37 10° NE
Cosmos 1461 3.5 02:50:43 10° WSW 02:54:32 45° NW 02:58:16 10° NNE
USA 267 3.8 02:48:23 10° ENE 02:54:41 48° SE 03:00:56 10° SSW
Cosmos 2058 3.9 02:51:26 10° SSE 02:55:18 45° E 02:59:13 10° NNE
NOSS 3-2 (C) 3.5 02:51:07 10° SW 02:56:32 74° NW 03:03:05 10° NE
BREEZE M DEB (TANK) 4.3 02:42:10 10° W 02:57:16 74° SSW 03:01:26 10° ESE
